Weather History for Ft Pierce, FL

Change the Weather History Date:

Saturday, May 4, 2013

  Actual Average Record
Temperature  
Mean Temperature 73 °F -  
Max Temperature 86 °F 84 °F 93 °F (1948)
Min Temperature 62 °F 66 °F 33 °F (1997)
Cooling Degree Days 8    
Growing Degree Days 23 (Base 50)    
Moisture  
Dew Point 65 °F    
Average Humidity 83    
Maximum Humidity 100    
Minimum Humidity 51    
Precipitation  
Precipitation 0.01 in - - ()
Sea Level Pressure  
Sea Level Pressure 29.73 in    
Wind  
Wind Speed 3 mph (WSW)    
Max Wind Speed 14 mph    
Max Gust Speed 17 mph    
Visibility 6 miles    
Events Fog    
Averages and records for this station are not official NWS values.
T = Trace of Precipitation, MM = Missing Value Source: NWS Daily Summary

Daily Weather History Graph

Daily Weather History Graph

Search for Another Location

Airport:

Trip Planner

Search our weather history database for the weather conditions in past years. The results will help you decide how hot, cold, wet, or windy it might be!

Date:

Astronomy

May. 04, 2013 Rise Set
Actual Time 6:39 AM EDT 7:57 PM EDT
Civil Twilight 6:15 AM EDT 8:21 PM EDT
Nautical Twilight 5:45 AM EDT 8:51 PM EDT
Astronomical Twilight 5:14 AM EDT 9:22 PM EDT
Moon 3:09 AM EDT (5/4) 3:18 PM EDT (5/4)
Length of Visible Light 14h 06m
Length of Day
13h 17m
Waning Crescent, 27% of the Moon is Illuminated
May 4
Waning Crescent
May 9
New
May 18
First Quarter
May 25
Full
May 31
Last Quarter

Hourly Weather History & Observations

Time (EDT) Temp. Heat Index Dew Point Humidity Pressure Visibility Wind Dir Wind Speed Gust Speed Precip Events Conditions
12:53 AM 70.0 °F - 66.9 °F 90% 29.73 in 10.0 mi SSW 5.8 mph - N/A   Clear
1:53 AM 68.0 °F - 64.9 °F 90% 29.73 in 5.0 mi SW 4.6 mph - N/A   Clear
2:53 AM 66.9 °F - 64.9 °F 93% 29.71 in 3.0 mi Calm Calm - 0.01 in   Clear
3:10 AM 66.2 °F - 64.4 °F 94% 29.71 in 2.5 mi Calm Calm - N/A   Clear
3:20 AM 66.2 °F - 64.4 °F 94% 29.70 in 4.0 mi Calm Calm - N/A   Clear
3:37 AM 66.2 °F - 64.4 °F 94% 29.70 in 1.8 mi SSE 3.5 mph - N/A   Clear
3:45 AM 66.2 °F - 64.4 °F 94% 29.70 in 3.0 mi Calm Calm - N/A   Partly Cloudy
3:53 AM 66.9 °F - 64.9 °F 93% 29.70 in 5.0 mi Calm Calm - N/A   Scattered Clouds
4:53 AM 64.9 °F - 64.0 °F 97% 29.71 in 3.0 mi Calm Calm - N/A   Partly Cloudy
4:56 AM 64.4 °F - 62.6 °F 94% 29.71 in 1.5 mi Calm Calm - N/A   Partly Cloudy
5:08 AM 64.4 °F - 62.6 °F 94% 29.71 in 3.0 mi Calm Calm - N/A   Partly Cloudy
5:41 AM 64.4 °F - 62.6 °F 94% 29.71 in 2.0 mi Calm Calm - N/A   Partly Cloudy
5:49 AM 62.6 °F - 62.6 °F 100% 29.71 in 1.0 mi Calm Calm - N/A   Mist
5:51 AM 62.6 °F - 62.6 °F 100% 29.71 in 0.5 mi Calm Calm - N/A Fog Fog
5:53 AM 64.0 °F - 62.1 °F 93% 29.72 in 0.5 mi Calm Calm - N/A Fog Fog
6:01 AM 64.4 °F - 62.6 °F 94% 29.72 in 0.2 mi Calm Calm - N/A Fog Fog
6:26 AM 62.6 °F - 62.6 °F 100% 29.72 in 0.8 mi Calm Calm - N/A   Mist
6:34 AM 62.6 °F - 60.8 °F 94% 29.73 in 0.2 mi Calm Calm - N/A Fog Fog
6:51 AM 64.4 °F - 62.6 °F 94% 29.73 in 0.5 mi Calm Calm - N/A Fog Fog
6:53 AM 64.0 °F - 63.0 °F 96% 29.73 in 0.8 mi Calm Calm - N/A   Overcast
6:59 AM 64.4 °F - 62.6 °F 94% 29.73 in 2.0 mi Calm Calm - N/A   Overcast
7:06 AM 64.4 °F - 64.4 °F 100% 29.73 in 5.0 mi Calm Calm - N/A   Overcast
7:53 AM 68.0 °F - 66.9 °F 96% 29.74 in 7.0 mi Calm Calm - N/A   Overcast
8:08 AM 69.8 °F - 66.2 °F 88% 29.74 in 9.0 mi West 3.5 mph - N/A   Overcast
8:53 AM 70.0 °F - 66.0 °F 87% 29.75 in 7.0 mi West 4.6 mph - N/A   Overcast
9:21 AM 71.6 °F - 66.2 °F 83% 29.75 in 10.0 mi SW 4.6 mph - N/A   Scattered Clouds
9:50 AM 73.4 °F - 66.2 °F 78% 29.76 in 10.0 mi West 11.5 mph - N/A   Mostly Cloudy
9:53 AM 73.0 °F - 66.0 °F 79% 29.76 in 10.0 mi West 11.5 mph - N/A   Mostly Cloudy
10:26 AM 73.4 °F - 66.2 °F 78% 29.76 in 10.0 mi West 10.4 mph - N/A   Overcast
10:53 AM 73.0 °F - 66.0 °F 79% 29.77 in 10.0 mi WSW 9.2 mph 17.3 mph N/A   Mostly Cloudy
11:00 AM 75.2 °F - 64.4 °F 69% 29.77 in 10.0 mi WSW 6.9 mph - N/A   Mostly Cloudy
11:53 AM 78.1 °F - 66.0 °F 66% 29.77 in 10.0 mi West 13.8 mph - N/A   Mostly Cloudy
12:10 PM 78.8 °F - 64.4 °F 61% 29.76 in 10.0 mi WSW 8.1 mph - N/A   Mostly Cloudy
12:53 PM 80.1 °F 81.9 °F 64.9 °F 60% 29.75 in 10.0 mi West 11.5 mph - N/A   Mostly Cloudy
1:53 PM 80.1 °F 81.9 °F 64.9 °F 60% 29.73 in 10.0 mi West 13.8 mph - N/A   Mostly Cloudy
2:53 PM 84.0 °F 85.4 °F 64.0 °F 51% 29.71 in 10.0 mi WSW 10.4 mph - N/A   Scattered Clouds
3:53 PM 82.9 °F 84.0 °F 63.0 °F 51% 29.71 in 10.0 mi West 6.9 mph - N/A   Mostly Cloudy
4:53 PM 82.9 °F 84.4 °F 64.0 °F 53% 29.70 in 10.0 mi WNW 8.1 mph - N/A   Scattered Clouds
5:53 PM 82.0 °F 84.5 °F 66.9 °F 60% 29.71 in 10.0 mi Calm Calm - N/A   Overcast
6:53 PM 81.0 °F 83.0 °F 66.0 °F 60% 29.71 in 10.0 mi ENE 3.5 mph - N/A   Mostly Cloudy
7:53 PM 77.0 °F - 68.0 °F 74% 29.72 in 10.0 mi East 5.8 mph - N/A   Clear
8:53 PM 75.9 °F - 66.9 °F 74% 29.75 in 10.0 mi East 4.6 mph - N/A   Mostly Cloudy
9:53 PM 75.0 °F - 68.0 °F 79% 29.77 in 10.0 mi Calm Calm - N/A   Mostly Cloudy
10:53 PM 73.0 °F - 69.1 °F 87% 29.79 in 10.0 mi Calm Calm - N/A   Overcast
11:02 PM 75.2 °F - 68.0 °F 78% 29.79 in 10.0 mi SSW 4.6 mph - N/A   Overcast
11:45 PM 73.4 °F - 66.2 °F 78% 29.80 in 10.0 mi West 10.4 mph - N/A   Mostly Cloudy
11:53 PM 73.0 °F - 64.9 °F 76% 29.81 in 10.0 mi West 9.2 mph - N/A   Scattered Clouds